Regional Weather Roundup
Issued by NWS

Home | Current Version | Previous Version | Graphics & Text | Print | Product List | Glossary On
Versions: 1 2 3 4 5 6 7 8 9 10 11 12 13 14 15 16 17 18 19 20 21 22 23 24 25 26 27 28 29 30 31 32 33 34 35 36 37 38 39 40 41 42 43 44 45 46 47 48 49 50
000
ASUS43 KMKX 271400
RWRWI

WISCONSIN REGIONAL WEATHER ROUNDUP
NATIONAL WEATHER SERVICE MILWAUKEE/SULLIVAN WI
900 AM CDT WED JUL 27 2016

NOTE: "FAIR" INDICATES FEW OR NO CLOUDS BELOW 12,000 FEET WITH NO
SIGNIFICANT WEATHER AND/OR OBSTRUCTIONS TO VISIBILITY.

WIZ001-002-006>008-014>016-023>028-271500-
NORTHWEST WISCONSIN

CITY           SKY/WX    TMP DP  RH WIND       PRES   REMARKS
SUPERIOR ARPT  CLOUDY    67  66  94 NE3       29.98R
ASHLAND        CLOUDY    71  67  87 CALM      29.99F
HAYWARD        CLOUDY    67  65  93 SW7       30.00R
SIREN          NOT AVBL
CUMBERLAND     CLOUDY    64  63  94 SE3       30.01R
RICE LAKE      CLOUDY    69  63  81 SE5       30.02R
CHETEK         CLOUDY    69  64  85 MISG      30.01R
LADYSMITH      CLOUDY    67  65  93 E3        30.03S
EAU CLAIRE     CLOUDY    74  69  85 NE3       30.01R
MENOMONIE      CLOUDY    73  70  89 NE3       30.01R
NEW RICHMOND   CLOUDY    73  69  89 S6        30.00R
OSCEOLA        PTSUNNY   71  71 100 SE3       30.01S
$$

WIZ003>005-009-010-017-018-271500-
NORTH CENTRAL WISCONSIN

CITY           SKY/WX    TMP DP  RH WIND       PRES   REMARKS
MANITOWISH WTR CLOUDY    65  65 100 W3        30.04S
ARBOR VITAE    RAIN      65  64  94 W3        30.04F
WOODRUFF       RAIN      65  64  94 W3        30.04F
RHINELANDER    LGT RAIN  65  62  90 W5        30.06R
EAGLE RIVER    DRIZZLE   65  65 100 W10       30.04R
LAND O LAKES   DRIZZLE   67  66  96 CALM      30.04S
PHILLIPS       CLOUDY    64  64  97 S3        30.02F
TOMAHAWK       RAIN      64  61  91 W3G9      30.06F
MEDFORD        TSTM      64  64 100 N8        30.05R
MERRILL        TSTM      69  64  84 NW6       30.07R
$$

WIZ029-030-035-036-043>047-271500-
CENTRAL WISCONSIN

CITY           SKY/WX    TMP DP  RH WIND       PRES   REMARKS
WAUSAU         PTSUNNY   73  64  73 N7        30.03R
MOSINEE        MOSUNNY   73  70  88 CALM      30.03F
MARSHFIELD     MOSUNNY   78  69  73 W9        30.01S HX  80
STEVENS POINT  MOSUNNY   74  67  80 CALM      30.02F
WAUPACA        MOSUNNY   78  70  76 CALM      30.01S HX  81
WAUTOMA        MOSUNNY   77  70  79 VRB3      30.01S
WISC RAPIDS    LGT RAIN  77  67  71 CALM      30.02F
CAMP DOUGLAS   NOT AVBL
$$

WIZ011>013-019>022-031-037>040-048>050-271500-
NORTHEAST WISCONSIN

CITY           SKY/WX    TMP DP  RH WIND       PRES   REMARKS
ANTIGO         CLOUDY    68  64  86 CALM      30.05S
SHAWANO        MOSUNNY   78  66  66 SW5       29.99F HX  80
OCONTO         MOSUNNY   74  69  86 NW5       29.99S
STURGEON BAY   SUNNY     76  68  76 W6        30.00R
GREEN BAY      SUNNY     77  68  73 SW6       29.99S
MANITOWOC      NOT AVBL
APPLETON       PTSUNNY   72  63  73 S7        29.99S
CLINTONVILLE   SUNNY     77  64  65 SW6       30.00S
OSHKOSH        PTSUNNY   78  67  68 W5        30.01R HX  80
$$

WIZ032>034-041-042-053>061-271500-
SOUTHWEST WISCONSIN

CITY           SKY/WX    TMP DP  RH WIND       PRES   REMARKS
LA CROSSE      MOSUNNY   78  69  73 S5        30.01R HX  80
SPARTA         MOSUNNY   72  68  86 S3        30.02S
VIROQUA        MOSUNNY   74  67  79 CALM      30.04S
BOSCOBEL       SUNNY     75  69  81 CALM      30.02S
PRAIRIE DU CHI MOSUNNY   73  69  87 CALM      30.02S
PLATTEVILLE    SUNNY     75  70  83 CALM      30.04S
$$

WIZ056-057-062-063-064-067-068-271500-
SOUTH CENTRAL WISCONSIN

CITY           SKY/WX    TMP DP  RH WIND       PRES   REMARKS
REEDSBURG      PTSUNNY   74  69  83 CALM      30.02S
BARABOO/DELLS  PTSUNNY   74  67  80 CALM      30.03S
LONE ROCK      MOSUNNY   71  68  90 CALM      30.03S
MINERAL POINT  SUNNY     77  68  73 CALM      30.04S
MADISON        PTSUNNY   78  67  68 NW5       30.01F HX  80
MIDDLETON      SUNNY     77  67  72 NW3       30.03S
WATERTOWN      MOSUNNY   75  69  81 CALM      30.01F
MONROE         SUNNY     77  64  65 W5        30.03F
JANESVILLE     PTSUNNY   79  66  65 CALM      30.01S HX  81
$$

WIZ051-052-058>065-066-070>072-271500-
SOUTHEAST WISCONSIN

CITY           SKY/WX    TMP DP  RH WIND       PRES   REMARKS
MILWAUKEE      MOSUNNY   83  66  56 W8        30.00S HX  85
WAUKESHA       SUNNY     75  66  73 W6        30.03S
MILWAUKEE/TIMM SUNNY     79  63  57 NW7       30.02S HX  80
RACINE         SUNNY     80  67  64 W7        30.03R HX  82
BURLINGTON     SUNNY     75  69  82 CALM      30.02S
KENOSHA        MOSUNNY   79  68  69 W5        30.02S HX  81
FOND DU LAC    SUNNY     78  70  76 SW6       30.00F HX  80
SHEBOYGAN      SUNNY     80  66  62 CALM      29.99S HX  82
WEST BEND      SUNNY     79  64  61 W8        30.01F HX  81
JUNEAU         SUNNY     73  67  82 SW5       30.03S
$$

LSZ147-162-271500-
LAKE SUPERIOR

STATION/POSITION TIME  TEMP    WIND        PRES    WAVE
                       AIR SEA DIR/SP/G            HT/PER
                 (UTC) (F)     (DEG/KT/KT) (MB)    (FT/S)
W MID LAKE BUOY  1250   62 60   30/ 12/ 14 1015.5R   1
DEVILS ISLAND    1300   64      60/ 15/ 17 1015.7R
PORT WING        1300   68      40/ 13/ 14 1015.6S
SAXON HARBOR     1300   70     170/  3/  6 1015.6R
$$

LMZ867-665-643>646-271500-
LAKE MICHIGAN

STATION/POSITION TIME  TEMP    WIND        PRES    WAVE
                       AIR SEA DIR/SP/G            HT/PER
                 (UTC) (F)     (DEG/KT/KT) (MB)    (FT/S)
CHAMBERS ISLAND  1300   72     250/  6/  7 1014.9R
S GREEN BAY BUOY 1330   73 74  300/  6/  8   N/A
N MID LAKE BUOY  1250   70 69  210/  4/  4 1013.8R   1/ 4
NORTHPORT PIER   1300   73      CALM  /  2 1014.6S
SISTER BAY       1321   81        CALM       N/A
ALGOMA LAKESHORE 1313           CALM  /  6   N/A
KEWAUNEE LAKESHO 1300   65     180/  5/  6 1014.6F
SHEBOYGAN LAKESH 1300   76     350/  2/  2 1015.5F
PORT WASHINGTON  1300   80     280/  4/  8 1016.6S
ATWATER BUOY     1300   70 53  290/  2/  4 1017.4F
MILWAUKEE LAKESH 1310   79     290/  9/ 10   N/A
S MID LAKE BUOY  1250   75 74  240/  6/  8 1015.5F   0
KENOSHA   LAKESH 1300   78     290/  6/  7 1015.9F
$$

TC  - TEMPERATURE IN CELSIUS
VSB - VISIBILITY IN STATUTE MILES
WCI - WIND CHILL INDEX
HX  - HEAT INDEX




USA.gov is the U.S. government's official web portal to all federal, state and local government web resources and services.